Location: Cannifist
(18.2333°N, 63.0167°W)
Time: 15:31:24
(UTC+00:00)

H-2A R/B - Pass Details

Date: 27 February 2020
Orbit: 733 x 837 km, 98.2° (Epoch: 01 April)

Event Time Altitude Azimuth Distance (km) Brightness Sun altitude
Exits shadow 23:24:52 25° 69° (ENE) 1,590 3.1 -16.8°
Drops below altitude 10° 23:28:58 10° 19° (NNE) 2,433 4.4 -17.7°
Sets 23:31:42 0° 7° (N) 3,376 5.2 -18.4°
